Temperature
18 18 18 18 18 18 18 17 17 17 17 16 16 16 16 16 16 16 15 15 15 15 15 15 15 15 14 14 14 14 14 14 14 14 14 13 13 13 13 13 13 13 13
18 18 18 18 18 18 18 17 17 17 16 16 16 16 16 16 15 15 15 15 15 15 15 15 15 15 14 14 14 14 14 14 14 14 14 13 13 13 13 13 13 13 13
18 18 18 18 18 17 17 17 17 17 16 16 16 16 15 15 15 15 15 15 15 15 15 15 15 14 14 14 14 14 14 14 14 14 14 13 13 13 13 13 13 13 13
18 18 18 18 17 17 17 17 17 16 16 16 16 16 15 15 15 15 15 15 15 15 15 14 14 14 14 14 14 14 14 14 14 13 13 13 13 13 12 12 12 13 13
18 18 18 18 17 17 17 17 16 16 16 16 16 15 15 15 15 15 15 15 15 14 14 14 14 14 14 14 14 14 14 14 13 13 13 13 13 13 13 12 12 12 12
17 17 17 17 17 17 17 16 16 16 16 16 15 15 15 15 15 15 15 14 14 14 14 14 14 14 14 14 14 14 14 13 13 13 13 13 13 13 13 13 12 12 12
17 17 17 17 17 17 16 16 16 16 16 15 15 15 15 15 15 15 14 14 14 14 14 14 14 14 14 14 14 14 13 13 13 13 13 13 13 13 13 13 12 12 12
17 17 17 17 17 16 16 16 16 16 15 15 15 15 15 15 15 14 14 14 14 14 14 14 14 14 14 14 13 13 13 13 13 13 13 13 13 13 13 13 12 12 12
17 17 17 17 16 16 16 16 16 16 15 15 15 15 15 15 14 14 14 14 14 14 14 14 14 14 13 13 13 13 13 13 13 13 13 12 12 12 12 12 12 12 12
17 16 16 16 16 16 16 16 15 15 15 15 15 15 14 14 14 14 14 14 14 13 13 13 13 13 13 13 13 13 13 13 13 12 12 12 12 12 12 12 12 12 12
17 16 16 16 16 16 15 15 15 15 15 15 14 14 14 14 14 14 14 14 13 13 13 13 13 13 13 13 13 13 13 13 12 12 12 12 12 12 12 12 12 11 11
16 16 16 16 15 15 15 15 15 15 14 14 14 14 14 14 14 14 13 13 13 13 13 13 13 13 13 13 13 13 13 12 12 12 12 12 12 12 12 12 11 11 11
16 16 16 15 15 15 15 15 14 14 14 14 14 14 14 14 14 13 13 13 13 13 13 12 13 13 13 12 12 12 12 12 12 12 12 12 12 12 11 11 11 11 11
16 16 15 15 15 15 15 14 14 14 14 14 13 13 13 13 13 13 13 13 13 12 12 12 12 12 12 12 12 12 12 12 12 12 12 12 11 11 11 11 11 11 11
15 15 15 15 15 14 14 14 14 13 13 13 13 13 13 13 13 13 13 12 12 12 12 12 12 12 12 12 12 12 12 12 12 11 11 11 11 11 11 11 11 10 10
15 15 15 14 14 14 14 14 13 13 13 13 13 13 13 12 12 12 12 12 12 12 12 12 12 12 12 12 12 11 11 11 11 11 11 11 11 11 11 10 10 10 10
15 14 14 14 14 14 14 13 13 13 13 13 13 12 12 12 12 12 12 12 12 12 12 12 11 11 11 11 11 11 11 11 11 11 10 11 10 10 10 10 10 10 10
14 14 14 14 14 14 14 13 13 13 13 12 12 12 12 12 12 12 12 12 11 11 11 11 11 11 11 11 11 11 11 11 10 10 10 10 10 10 10 10 10 10 9
14 14 14 14 14 13 13 13 13 12 12 12 12 12 12 11 11 11 11 11 11 11 11 11 11 11 11 10 10 10 10 10 10 10 10 10 10 10 9 9 9 9 9
14 14 14 13 13 13 13 12 12 12 12 12 12 11 11 11 11 11 11 11 11 11 10 10 10 10 10 10 10 10 10 10 10 10 9 9 9 9 9 9 9 9 9
13 13 13 13 13 12 12 12 12 12 12 11 11 11 11 11 11 11 10 10 10 10 10 10 10 10 10 10 10 10 9 9 9 9 9 9 9 9 8 8 8 8 8
13 13 12 12 12 12 12 12 11 11 11 11 11 11 10 10 10 10 10 10 10 10 10 9 9 9 9 9 9 9 9 9 9 9 9 9 9 8 8 8 8 8 8
12 12 12 12 12 11 11 11 11 11 10 10 10 10 10 10 10 10 10 9 9 9 9 9 9 9 9 9 9 9 9 9 9 9 8 8 8 8 8 8 8 8 7
11 11 11 11 11 11 11 11 10 10 10 10 10 9 9 9 9 9 9 9 9 9 9 9 9 9 9 9 9 9 8 8 8 8 8 8 8 8 7 7 7 7 7
11 11 11 11 11 10 10 10 10 10 9 9 9 9 9 9 9 9 9 9 9 9 8 8 8 8 8 8 8 8 8 8 8 7 7 7 7 7 7 7 7 7 6
10 10 10 10 10 10 10 10 9 9 9 9 9 8 9 9 8 9 9 8 8 8 8 8 8 8 8 8 8 8 8 7 7 7 7 7 7 6 6 6 6 6 6
Wind_Speed
6 6 6 6 6 7 7 6 6 5 5 3 3 3 2 1 2 2 4 5 5 6 6 4 3 4 4 3 3 3 4 2 2 3 3 4 4 3 2 2 3 3 3
4 5 5 5 6 7 7 6 6 6 5 4 3 2 2 2 1 2 3 4 5 5 5 5 3 4 4 4 3 3 2 1 2 3 3 2 3 3 3 2 2 2 2
10 8 7 6 7 7 6 6 6 6 5 4 3 3 3 3 2 1 1 1 3 4 5 5 4 4 4 4 3 3 4 2 1 1 3 3 2 1 3 3 2 1 1
9 9 9 8 8 7 6 6 6 5 5 5 5 5 4 2 2 2 1 0 2 3 4 5 5 4 4 4 3 3 3 3 2 0 1 2 3 3 0 3 3 2 1
10 10 9 9 8 8 7 6 6 5 5 5 6 5 3 2 1 1 2 1 0 1 3 5 5 4 4 4 3 3 3 3 3 2 1 2 2 2 3 1 2 2 2
8 8 7 7 7 6 6 6 6 5 5 5 6 6 5 4 3 2 2 1 0 0 1 3 4 4 4 4 3 3 3 3 3 2 2 2 2 2 2 2 1 1 2
7 7 7 7 7 7 7 6 6 6 6 6 6 6 6 6 5 4 4 3 1 1 2 2 3 3 3 4 4 3 3 3 3 2 2 2 2 2 3 3 1 1 2
7 8 8 8 8 9 8 8 8 7 7 7 6 5 5 4 4 4 4 4 3 3 3 3 2 4 4 4 4 3 3 3 3 3 3 2 1 2 2 3 3 1 1
6 7 6 6 6 7 8 8 9 7 6 6 5 4 4 4 4 4 3 3 3 3 3 3 3 3 4 4 4 3 3 3 3 3 3 2 1 1 2 3 3 4 2
6 5 5 5 5 6 6 6 7 7 6 6 5 5 4 4 3 3 3 3 3 3 3 3 3 2 3 4 4 3 3 4 3 2 3 2 1 1 1 2 2 2 3
6 6 5 5 5 4 4 5 5 5 5 5 5 4 4 3 3 3 4 4 4 4 4 4 3 3 3 4 4 4 4 4 3 2 3 2 2 2 1 2 2 2 2
5 5 4 4 4 4 3 4 4 4 5 5 4 4 4 3 3 4 4 4 4 4 4 4 3 3 3 4 5 5 5 5 4 3 3 2 2 2 2 2 2 2 2
4 3 3 3 4 4 4 4 4 4 3 4 4 3 3 3 4 4 3 4 4 3 3 4 4 3 3 4 4 5 5 5 5 4 4 3 3 2 2 2 2 2 2
4 4 4 3 3 3 3 3 3 3 3 3 3 3 3 4 4 4 3 4 4 4 4 4 4 4 3 4 4 4 4 4 3 3 3 3 4 4 4 3 3 2 2
4 4 4 3 3 3 3 3 3 3 3 3 3 3 3 3 3 3 3 3 3 3 4 4 3 3 3 4 4 4 5 4 3 3 2 3 4 5 4 3 3 4 3
3 3 3 3 4 4 3 3 2 2 3 3 3 3 2 2 2 3 3 3 3 2 3 4 4 3 3 4 6 6 4 4 4 3 2 2 3 4 4 4 5 6 5
3 3 3 3 4 5 5 4 4 3 3 3 3 2 2 2 3 2 2 3 3 3 3 3 3 3 3 4 6 6 5 4 4 3 3 2 2 2 1 2 2 3 5
2 3 3 3 3 3 3 3 2 2 3 3 2 2 2 3 3 2 3 3 3 3 3 3 3 3 3 4 5 5 4 3 3 3 4 3 2 2 2 2 1 2 2
3 4 4 3 3 3 3 2 2 2 2 3 3 3 3 3 3 3 3 3 3 3 3 3 4 3 3 3 4 4 3 2 1 1 2 3 3 3 2 2 2 1 2
1 1 1 1 2 3 3 3 2 2 2 3 3 3 3 3 4 4 3 3 3 3 3 3 3 4 3 3 4 4 3 3 2 1 1 2 3 2 3 3 3 3 3
1 1 1 1 3 3 4 3 3 3 3 2 1 2 2 3 3 3 2 2 3 3 3 3 2 3 3 3 4 4 3 3 3 2 1 2 2 3 2 3 3 4 3
1 1 2 2 2 3 3 3 3 3 2 1 1 1 2 3 2 2 1 1 2 3 3 3 2 1 2 3 3 3 3 3 3 3 2 2 3 2 2 2 2 2 1
1 1 2 2 2 2 4 4 4 3 1 1 1 1 2 2 3 4 4 2 2 3 3 3 3 2 1 2 3 3 2 3 2 2 2 2 2 1 1 1 1 2 2
1 1 1 2 3 3 4 4 4 3 2 2 2 2 2 2 2 2 4 4 4 4 4 3 3 3 2 2 2 1 1 2 2 1 1 1 1 1 0 0 1 1 2
2 2 2 3 4 3 3 4 3 3 3 3 3 3 3 2 2 2 3 4 5 5 6 5 4 4 4 4 4 3 3 3 3 2 1 1 1 1 1 0 0 0 1
3 3 3 3 3 3 3 3 3 4 4 3 3 3 3 2 2 2 1 2 3 4 6 6 5 4 4 4 5 4 3 4 5 4 2 2 2 2 2 1 1 1 2
Wind_Direction
186 164 160 153 146 141 136 130 129 132 126 119 125 124 128 131 107 112 119 119 118 116 110 108 104 101 103 106 109 107 90 72 87 82 49 24 31 43 47 70 85 85 96
183 171 152 145 149 151 149 141 139 141 136 141 152 154 148 147 133 107 110 122 126 134 133 129 124 116 109 102 101 106 100 83 80 111 100 43 7 7 14 31 73 73 94
184 178 161 157 154 154 159 155 153 150 143 134 120 99 76 62 51 57 95 140 139 144 141 140 132 128 124 128 128 129 125 132 57 100 131 136 196 305 344 4 20 34 73
180 178 166 163 166 166 159 155 156 148 145 138 137 139 138 149 191 185 189 209 147 142 149 147 141 139 135 137 146 136 135 137 143 56 60 129 151 151 317 336 343 358 45
177 177 173 171 169 164 162 164 162 156 156 150 147 146 143 158 157 133 129 112 89 133 162 154 146 148 147 153 147 137 137 149 157 156 126 88 77 104 138 228 315 342 331
175 173 173 166 165 163 165 167 164 165 164 154 152 153 154 156 145 153 165 169 135 70 131 148 150 156 158 163 167 163 158 162 153 148 147 149 147 161 146 171 228 272 304
165 167 169 173 172 168 171 169 165 170 173 165 168 171 170 166 171 179 181 176 180 214 198 153 167 172 178 178 169 157 163 166 159 165 167 162 170 162 152 148 172 223 300
166 174 178 179 179 177 173 171 175 177 177 176 181 181 180 177 184 188 186 186 193 202 197 171 175 182 178 177 165 157 171 159 158 158 149 144 165 154 157 157 149 115 344
171 178 177 177 178 180 180 175 173 172 179 184 181 182 185 184 190 194 188 185 190 195 188 182 181 190 181 176 167 167 175 159 160 157 147 142 166 156 149 146 152 153 178
169 171 176 180 181 182 180 170 171 177 180 180 183 186 190 191 186 171 184 190 192 185 188 195 187 196 196 182 168 176 170 152 162 161 147 143 157 147 136 147 147 150 164
170 174 179 183 180 176 166 164 168 171 177 181 183 182 192 193 179 183 197 194 190 185 186 191 187 188 193 185 174 181 170 162 168 167 155 168 159 147 148 144 142 141 144
174 167 166 164 163 166 168 171 170 170 181 181 179 185 185 178 179 191 197 186 179 186 186 181 180 189 191 185 180 182 176 171 175 182 168 190 174 159 165 158 167 176 173
151 139 138 159 171 170 171 177 183 181 174 169 178 189 187 187 196 198 195 181 175 175 177 176 183 192 194 190 187 180 176 175 177 178 179 195 176 186 192 180 184 191 183
155 147 156 174 181 173 169 170 184 179 164 162 173 188 203 208 205 201 191 186 182 179 187 189 191 194 193 187 180 174 170 173 179 183 184 191 188 194 195 192 191 178 157
159 168 173 178 172 162 164 165 176 176 169 162 175 202 210 211 203 194 192 193 187 191 186 178 183 192 194 190 176 170 170 174 177 189 206 215 205 200 194 184 182 166 158
167 172 181 177 178 183 184 180 190 191 171 177 200 212 204 208 209 200 189 182 183 186 172 181 186 192 204 194 179 168 168 171 174 192 220 231 222 217 205 194 188 178 175
175 179 189 198 196 198 194 193 199 192 174 192 211 216 214 214 221 205 185 187 186 176 177 184 180 191 213 192 180 168 156 164 178 185 198 221 220 206 204 212 208 204 204
188 203 208 219 214 201 195 194 190 187 187 195 216 222 217 216 213 190 186 192 180 177 183 185 183 177 191 177 173 156 145 153 175 187 192 194 217 201 178 178 209 238 244
203 207 208 209 200 195 192 176 175 183 192 217 227 228 216 205 198 197 202 200 182 184 184 180 175 174 191 178 165 147 145 156 189 201 190 194 212 235 195 163 172 225 282
188 192 190 180 193 205 181 167 187 185 213 239 242 230 216 203 201 205 206 201 187 194 186 181 182 180 191 187 177 160 155 167 191 214 220 209 207 212 183 174 177 212 252
180 168 166 189 213 203 180 183 194 210 223 235 240 218 208 205 197 196 202 188 182 178 180 178 190 190 188 190 188 175 169 183 185 195 224 232 214 209 202 184 188 219 232
189 181 189 229 232 196 177 189 215 227 220 206 213 206 205 202 181 168 179 178 177 172 178 172 182 206 204 193 203 194 176 165 169 197 210 217 212 214 212 207 215 209 175
255 232 201 223 245 210 181 196 226 218 191 184 219 222 201 194 183 178 178 178 181 184 195 190 200 214 216 217 213 201 192 178 170 192 195 202 209 213 217 208 176 149 146
279 256 216 220 237 229 206 206 216 204 182 197 234 232 201 203 212 193 183 185 191 196 199 205 208 210 210 213 197 182 171 153 152 170 176 136 118 124 135 125 124 151 177
278 248 221 222 234 231 222 216 203 188 193 210 226 234 219 205 213 209 207 205 210 204 200 206 205 198 212 223 201 180 187 185 179 147 108 84 76 62 43 29 39 199 177
274 260 244 231 232 224 228 224 201 185 189 213 225 228 216 211 210 204 243 267 232 229 221 209 205 215 219 201 192 194 187 174 155 137 153 178 192 205 211 217 247 247 234
Height
1508 1509 1511 1513 1514 1516 1518 1519 1521 1522 1523 1524 1524 1525 1526 1527 1527 1528 1528 1529 1529 1529 1529 1529 1529 1528 1528 1528 1529 1529 1529 1529 1529 1530 1530 1531 1531 1531 1531 1531 1531 1531 1531
1506 1508 1510 1511 1513 1514 1516 1518 1519 1521 1522 1523 1524 1525 1525 1526 1527 1527 1528 1528 1528 1528 1528 1528 1528 1528 1528 1528 1528 1528 1528 1529 1529 1529 1529 1530 1532 1531 1531 1531 1531 1531 1531
1503 1505 1507 1509 1511 1513 1515 1516 1518 1520 1521 1522 1523 1524 1525 1525 1526 1526 1527 1527 1528 1528 1528 1527 1527 1527 1527 1527 1527 1528 1528 1528 1529 1529 1529 1530 1530 1530 1531 1530 1530 1530 1530
1500 1502 1504 1507 1509 1511 1513 1515 1517 1518 1520 1521 1522 1522 1523 1523 1524 1525 1526 1526 1526 1526 1527 1527 1527 1527 1527 1527 1527 1527 1527 1528 1527 1528 1528 1529 1529 1529 1530 1530 1530 1530 1529
1497 1499 1502 1504 1507 1509 1511 1513 1515 1517 1518 1520 1521 1521 1522 1522 1523 1524 1524 1525 1525 1525 1525 1525 1526 1526 1526 1526 1526 1526 1527 1527 1527 1527 1527 1527 1528 1528 1528 1529 1529 1529 1529
1496 1498 1500 1503 1505 1507 1509 1511 1513 1514 1516 1517 1519 1520 1520 1521 1521 1522 1522 1523 1523 1524 1524 1524 1524 1524 1525 1525 1525 1525 1526 1526 1526 1526 1527 1527 1527 1527 1527 1527 1527 1528 1528
1495 1497 1499 1501 1503 1505 1507 1509 1510 1512 1514 1515 1517 1518 1518 1519 1519 1520 1520 1521 1521 1522 1522 1522 1522 1523 1523 1524 1524 1524 1524 1525 1525 1525 1526 1526 1526 1526 1526 1526 1526 1526 1526
1493 1495 1496 1498 1500 1503 1505 1506 1507 1509 1511 1513 1514 1515 1516 1517 1517 1518 1518 1519 1519 1520 1520 1520 1521 1521 1521 1522 1522 1522 1523 1523 1524 1524 1524 1525 1525 1525 1525 1526 1525 1525 1525
1492 1493 1494 1496 1498 1500 1502 1503 1504 1506 1508 1510 1512 1513 1514 1515 1515 1516 1516 1516 1517 1517 1518 1519 1519 1519 1519 1520 1520 1521 1521 1521 1522 1522 1523 1523 1524 1524 1524 1524 1524 1525 1523
1491 1492 1492 1494 1496 1498 1500 1501 1502 1504 1505 1507 1509 1510 1511 1512 1513 1513 1513 1514 1514 1515 1515 1516 1516 1517 1517 1518 1518 1519 1519 1519 1520 1520 1521 1521 1522 1522 1522 1522 1522 1523 1523
1490 1490 1491 1493 1494 1496 1497 1499 1500 1501 1503 1504 1506 1507 1508 1509 1510 1510 1511 1511 1511 1512 1512 1513 1513 1514 1514 1515 1515 1516 1517 1517 1518 1518 1519 1519 1520 1520 1520 1520 1520 1521 1521
1489 1490 1490 1491 1492 1494 1495 1496 1498 1499 1500 1502 1503 1504 1505 1506 1507 1507 1508 1508 1508 1509 1509 1510 1511 1511 1511 1512 1512 1513 1514 1515 1515 1516 1516 1517 1518 1518 1518 1518 1518 1518 1519
1488 1489 1490 1490 1491 1492 1493 1494 1496 1497 1498 1499 1500 1501 1502 1503 1503 1504 1505 1505 1505 1506 1507 1507 1508 1509 1509 1509 1509 1510 1511 1512 1513 1513 1514 1514 1515 1515 1516 1516 1516 1516 1517
1487 1487 1488 1489 1490 1491 1491 1492 1493 1495 1496 1497 1497 1498 1499 1499 1500 1501 1501 1502 1502 1503 1504 1505 1505 1506 1506 1506 1506 1507 1508 1509 1510 1511 1511 1512 1512 1513 1513 1513 1514 1514 1514
1486 1486 1487 1487 1488 1489 1490 1491 1492 1492 1493 1494 1494 1495 1495 1496 1497 1497 1498 1498 1499 1500 1501 1502 1502 1503 1503 1503 1504 1504 1505 1506 1507 1508 1508 1509 1509 1510 1510 1511 1511 1511 1512
1485 1486 1486 1486 1487 1487 1488 1489 1490 1490 1491 1491 1492 1492 1492 1493 1493 1494 1494 1495 1496 1496 1498 1498 1499 1499 1500 1500 1501 1502 1502 1503 1504 1504 1505 1506 1506 1507 1507 1508 1508 1509 1509
1484 1484 1485 1485 1485 1486 1486 1487 1488 1488 1489 1489 1489 1490 1490 1490 1490 1490 1491 1491 1492 1493 1494 1495 1495 1496 1497 1498 1498 1499 1500 1500 1501 1501 1502 1503 1503 1504 1504 1504 1505 1506 1506
1482 1482 1483 1483 1483 1484 1484 1485 1486 1486 1486 1486 1487 1487 1487 1487 1487 1487 1487 1488 1489 1490 1491 1491 1492 1493 1494 1495 1495 1496 1497 1497 1498 1498 1499 1499 1500 1500 1501 1501 1502 1502 1502
1481 1481 1481 1481 1481 1482 1482 1482 1483 1483 1483 1483 1483 1484 1484 1484 1484 1484 1484 1485 1486 1486 1487 1488 1489 1490 1491 1492 1493 1493 1493 1494 1495 1495 1496 1496 1496 1497 1497 1498 1498 1498 1499
1479 1479 1479 1479 1479 1479 1479 1479 1479 1480 1480 1480 1480 1480 1481 1481 1481 1481 1482 1482 1483 1483 1484 1485 1486 1486 1488 1489 1489 1490 1490 1490 1491 1492 1492 1493 1493 1493 1494 1494 1494 1494 1495
1476 1476 1476 1476 1476 1476 1476 1476 1476 1476 1477 1477 1477 1477 1477 1478 1478 1479 1479 1479 1480 1480 1481 1482 1482 1483 1484 1485 1486 1487 1487 1487 1488 1488 1489 1489 1490 1490 1490 1491 1491 1491 1491
1474 1473 1473 1473 1473 1473 1473 1473 1473 1474 1474 1474 1473 1473 1474 1474 1475 1476 1476 1476 1477 1477 1478 1478 1479 1480 1481 1482 1483 1484 1484 1485 1485 1485 1485 1486 1486 1487 1487 1487 1487 1488 1488
1471 1471 1470 1470 1470 1471 1471 1470 1471 1471 1471 1471 1470 1470 1471 1471 1472 1472 1473 1473 1474 1474 1474 1475 1475 1476 1477 1479 1480 1480 1481 1481 1482 1482 1482 1482 1483 1483 1483 1484 1484 1484 1484
1468 1468 1467 1467 1467 1467 1468 1468 1468 1468 1468 1467 1468 1467 1467 1468 1468 1469 1469 1470 1470 1470 1471 1471 1472 1472 1474 1475 1475 1476 1477 1477 1478 1478 1478 1478 1479 1479 1480 1480 1480 1480 1481
1466 1465 1464 1464 1464 1464 1464 1464 1465 1464 1464 1464 1464 1464 1464 1464 1465 1465 1466 1466 1467 1467 1468 1468 1468 1469 1469 1471 1472 1472 1473 1473 1474 1474 1474 1474 1474 1475 1475 1476 1476 1477 1477
1463 1462 1462 1461 1461 1461 1460 1460 1461 1461 1460 1460 1460 1461 1460 1461 1461 1461 1461 1462 1463 1464 1465 1465 1465 1466 1467 1468 1468 1469 1469 1470 1470 1470 1470 1470 1470 1471 1471 1472 1472 1473 1473